IW6NXR-13 Weather Reports


Display with metric or nautical units.
time (UTC)temp
F
wind
direction
speed
MPH
gust
MPH
rain 1hr
in
rain 24hr
in
rain mn
in
humidity
%
barometer
mb
20260507115035 82 0.0 0.0 0.00 0.00 0.00 1014.0
20260507113034 82 0.0 0.0 0.00 0.00 0.00 1013.9
20260507111034 88 0.0 0.0 0.00 0.00 0.00 1013.8
20260507105033 90 0.0 0.0 0.00 0.00 0.00 1013.8
20260507103033 95 0.0 0.0 0.00 0.00 0.00 1014.1
20260507101033 89 0.0 0.0 0.00 0.00 0.00 1013.9
20260507095033 86 0.0 0.0 0.00 0.00 0.00 1013.9
20260507093032 96 0.0 0.0 0.00 0.00 0.00 1013.9
20260507091032 94 0.0 0.0 0.00 0.00 0.00 1014.1
20260507085032 101 0.0 0.0 0.00 0.00 0.00 1014.0
20260507083031 95 0.0 0.0 0.00 0.00 0.00 1014.3
20260507081031 80 0.0 0.0 0.00 0.00 0.00 1014.3
20260507075031 78 0.0 0.0 0.00 0.00 0.00 1014.0
20260507073030 90 0.0 0.0 0.00 0.00 0.00 1013.9
20260507071030 91 0.0 0.0 0.00 0.00 0.00 1014.1
20260507065030 84 0.0 0.0 0.00 0.00 0.00 1014.3
20260507063029 67 0.0 0.0 0.00 0.00 0.00 1014.4
20260507061029 65 0.0 0.0 0.00 0.00 0.00 1014.6
20260507055029 65 0.0 0.0 0.00 0.00 0.00 1014.3
20260507053029 64 0.0 0.0 0.00 0.00 0.00 1014.1
20260507051028 64 0.0 0.0 0.00 0.00 0.00 1013.7
20260507045028 63 0.0 0.0 0.00 0.00 0.00 1013.4
20260507043027 63 0.0 0.0 0.00 0.00 0.00 1013.3
20260507041027 63 0.0 0.0 0.00 0.00 0.00 1013.1
20260506222922 62 0.0 0.0 0.00 0.00 0.00 1011.9
20260506220923 62 0.0 0.0 0.00 0.00 0.00 1011.9
20260506214922 63 0.0 0.0 0.00 0.00 0.00 1011.9
20260506212922 63 0.0 0.0 0.00 0.00 0.00 1012.0
20260506202921 65 0.0 0.0 0.00 0.00 0.00 1012.0
20260506200921 65 0.0 0.0 0.00 0.00 0.00 1011.9
20260506194920 65 0.0 0.0 0.00 0.00 0.00 1011.9
20260506190921 64 0.0 0.0 0.00 0.00 0.00 1011.3
20260506184919 64 0.0 0.0 0.00 0.00 0.00 1011.1
20260506182921 65 0.0 0.0 0.00 0.00 0.00 1011.1
20260506180919 65 0.0 0.0 0.00 0.00 0.00 1011.0
20260506174920 66 0.0 0.0 0.00 0.00 0.00 1011.0
20260506172923 67 0.0 0.0 0.00 0.00 0.00 1010.8
20260506162919 70 0.0 0.0 0.00 0.00 0.00 1010.7
20260506160916 71 0.0 0.0 0.00 0.00 0.00 1010.9
20260506154916 72 0.0 0.0 0.00 0.00 0.00 1010.7
20260506152916 73 0.0 0.0 0.00 0.00 0.00 1010.9
20260506144917 73 0.0 0.0 0.00 0.00 0.00 1011.0
20260506142915 73 0.0 0.0 0.00 0.00 0.00 1011.0
20260506134915 76 0.0 0.0 0.00 0.00 0.00 1011.3
20260506132914 76 0.0 0.0 0.00 0.00 0.00 1011.4
20260506130914 75 0.0 0.0 0.00 0.00 0.00 1011.6
20260506124916 74 0.0 0.0 0.00 0.00 0.00 1011.8
20260506122913 75 0.0 0.0 0.00 0.00 0.00 1011.8